Regional Weather Roundup
Issued by NWS Little Rock, AR

Home | Current Version | Previous Version | Text Only | Print | Product List | Glossary On
Versions: 1 2 3 4 5 6 7 8 9 10 11 12 13 14 15 16 17 18 19 20 21 22 23 24 25 26 27 28 29 30 31 32 33 34 35 36 37 38 39 40 41 42 43 44 45 46 47 48 49 50
000
ASUS44 KLZK 250205
RWRLZK

WEATHER ROUNDUP FOR ARKANSAS
NATIONAL WEATHER SERVICE LITTLE ROCK AR
900 PM CDT THU JUL 24 2014

NOTE: "FAIR" INDICATES FEW OR NO CLOUDS BELOW 12,000 FEET WITH NO
SIGNIFICANT WEATHER AND/OR OBSTRUCTIONS TO VISIBILITY.

ARZ001-003-010-029-250300-
NORTHWEST ARKANSAS

CITY           SKY/WX    TMP DP  RH WIND       PRES   REMARKS
FAYETTEVILLE   CLEAR     75  70  84 CALM      30.03R
FORT SMITH     CLEAR     81  71  71 E3        29.98S HX  85
HARRISON       CLEAR     74  64  71 E5        30.06R
BENTONVILLE    CLEAR     79  66  65 CALM      30.04S
ROGERS         CLEAR     78  67  68 CALM      30.05R
SILOAM SPGS    CLEAR     77  64  65 SW3       30.03F
HIGHFILL       CLEAR     77  69  76 CALM      30.03R
SPRINGDALE     CLEAR     81  68  65 CALM      30.05R
$$

ARZ004-005-016-250300-
NORTH CENTRAL ARKANSAS

CITY           SKY/WX    TMP DP  RH WIND       PRES   REMARKS
BATESVILLE     CLEAR     73  63  68 SE5       30.03R
FLIPPIN        CLEAR     73  57  56 E3        30.05R
MTN HOME       CLEAR     69  61  75 CALM      30.04R
$$

ARZ040-041-250300-
WEST CENTRAL ARKANSAS

CITY           SKY/WX    TMP DP  RH WIND       PRES   REMARKS
MENA           MOCLDY    81  73  78 CALM      30.01S HX  85
MOUNT IDA      CLEAR     75  73  93 CALM      29.99S
$$

ARZ009-017-025-026-028-250300-
NORTHEAST ARKANSAS

CITY           SKY/WX    TMP DP  RH WIND       PRES   REMARKS
CORNING        FAIR      72  64  78 CALM      30.05R
JONESBORO      CLEAR     66  61  84 CALM      30.04R
NEWPORT        CLEAR     73  66  78 E7        30.04R
WALNUT RIDGE   CLEAR     72  63  73 NE6       30.04R
BLYTHEVILLE    CLEAR     68  66  93 N6        30.03R
$$

ARZ022-023-033-042-044-250300-
CENTRAL ARKANSAS

CITY           SKY/WX    TMP DP  RH WIND       PRES   REMARKS
LITTLE ROCK    PTCLDY    76  67  73 SE5       30.01R
N LITTLE ROCK  PTCLDY    74  70  85 E3        30.01R
JACKSONVILLE   CLEAR     73  68  83 E3        30.02R
SEARCY         CLEAR     74  65  73 N5        30.03R
HOT SPRINGS    CLOUDY    80  73  79 E5        30.01R
RUSSELLVILLE   CLEAR     75  72  90 CALM      30.00R
CLINTON        FAIR      73  70  88 CALM      30.03R
$$

ARZ036-250300-
EAST ARKANSAS

CITY           SKY/WX    TMP DP  RH WIND       PRES   REMARKS
WEST MEMPHIS   CLEAR     71  62  73 N5        30.01R
$$

ARZ050-053-066-070-073-250300-
SOUTHWEST ARKANSAS

CITY           SKY/WX    TMP DP  RH WIND       PRES   REMARKS
ARKADELPHIA    FAIR      77  76  96 CALM      30.00R
CAMDEN         CLEAR     75  72  88 E3        29.99S HAZE
TEXARKANA      CLEAR     75  72  90 CALM      29.99R
EL DORADO      CLEAR     77  74  90 N7        29.99R
DE QUEEN       CLEAR     79  74  84 CALM      29.96S
$$

ARZ056-057-069-250300-
SOUTHEAST ARKANSAS

CITY           SKY/WX    TMP DP  RH WIND       PRES   REMARKS
PINE BLUFF     CLEAR     74  68  81 NE3       30.01R
STUTTGART      CLEAR     73  63  68 E8        30.02R
MONTICELLO     CLEAR     76  71  85 CALM      30.00R

$$




USA.gov is the U.S. government's official web portal to all federal, state and local government web resources and services.